This is the latest recevied weather packets stored in our database for station/object DC0PP-10. If no packets are shown the sender has not sent any weather packets the latest 10 day(s).
| Time | Temp. | Humidity | Pressure | Rain* | Wind** | Luminosity | Snow |
|---|---|---|---|---|---|---|---|
| 1777337729 | 15° C | 48% | 1017.8 hPa | - | - | - | - |
| 1777336828 | 15° C | 46% | 1017.8 hPa | - | - | - | - |
| 1777335932 | 15° C | 46% | 1018 hPa | - | - | - | - |
| 1777335031 | 15° C | 46% | 1018.1 hPa | - | - | - | - |
| 1777334131 | 15° C | 49% | 1018.1 hPa | - | - | - | - |
| 1777333231 | 15° C | 48% | 1018.1 hPa | - | - | - | - |
| 1777332331 | 13.89° C | 53% | 1018.2 hPa | - | - | - | - |
| 1777331431 | 13.89° C | 54% | 1018.3 hPa | - | - | - | - |
| 1777330531 | 13.89° C | 55% | 1018.3 hPa | - | - | - | - |
| 1777329631 | 13.89° C | 56% | 1018.4 hPa | - | - | - | - |
| 1777328730 | 13.89° C | 56% | 1018.5 hPa | - | - | - | - |
| 1777327830 | 13.89° C | 57% | 1018.6 hPa | - | - | - | - |
| 1777326930 | 13.89° C | 56% | 1018.5 hPa | - | - | - | - |
| 1777326030 | 14.44° C | 54% | 1018.6 hPa | - | - | - | - |
| 1777325130 | 14.44° C | 59% | 1018.7 hPa | - | - | - | - |
| 1777324230 | 14.44° C | 57% | 1018.8 hPa | - | - | - | - |
| 1777323329 | 14.44° C | 58% | 1018.8 hPa | - | - | - | - |
| 1777322429 | 14.44° C | 59% | 1019 hPa | - | - | - | - |
| 1777321529 | 15° C | 60% | 1019.1 hPa | - | - | - | - |
| 1777320629 | 15° C | 59% | 1018.9 hPa | - | - | - | - |
| 1777319729 | 15° C | 58% | 1019 hPa | - | - | - | - |
| 1777318829 | 15° C | 59% | 1019 hPa | - | - | - | - |
| 1777317929 | 15.56° C | 58% | 1019 hPa | - | - | - | - |
| 1777317028 | 16.11° C | 55% | 1018.9 hPa | - | - | - | - |
| 1777316128 | 17.22° C | 54% | 1018.8 hPa | - | - | - | - |
* Rain since midnight (hover to see other rain measurements)
** Current wind speed in m/s (hover to see current wind gust speed)